sat.trackr.live / text

‹ back to catalog

STARLINK-35246

NORAD 65660 · 2025-211J

PAYLOAD ACTIVE UNKNOWN

§ Identity

Operator
Country
US
Launch date
2025-09-19
Launch site
AFWTR
Launch vehicle
Mass (kg)
RCS (m²)

Purposes: comms

External: N2YO · Heavens-Above · Gunter

§ Orbital elements

Epoch: 2026-05-25T03:07:09.597216Z

Period
95.64 min
Inclination
97.4441°
Eccentricity
0.0002097
Mean motion
15.05659594 rev/d
Perigee alt
548.0 km
Apogee alt
550.9 km
Semi-major
6,927.6 km
B*
-8.0354e-5
RAAN
189.0394°
Arg perigee
121.7294°
Mean anomaly
238.4137°
Rev number
3,854

§ Raw data

STARLINK-352461 65660U 25211J   26145.12997219 -.00001218  00000+0 -80354-4 0  99992 65660  97.4441 189.0394 0002097 121.7294 238.4137 15.05659594 38549

JSON: /api/v1/satellites/65660 · /tle

For live sub-satellite position, see the globe view (requires WebGL).

§ Visibility from observer

Set your observer location to see the next 7 days of passes ≥ 10°. The values pass through the URL so the page stays shareable.

No JS? Fill the form by hand. The geolocation button needs JavaScript.